This demonstration page uses our WeatherBlox Daily Observations layout. Learn more.

Left ArrowRight Arrow

44.89941, -97.11507

Hourly Observations for November 17, 2019

Temp ( °F °C ) Dew Point ( °F °C ) Humidity (%) Winds ( mph kmh ) Pressure ( in mb ) Visibility ( mi km ) Precip ( " mm )
12:53 am 00:53 Cloudy 39 3.9 35 1.7 86 86 W 8 13 29.98 1015 10 16 0.00 0.00
1:49 am 01:49 Cloudy 37 3 36 2 93 93 W 8 13 30.00 1016 10 16 0.00 0.00
1:53 am 01:53 Cloudy 37 2.8 35 1.7 93 93 W 7 11 29.98 1015 10 16 0.00 0.00
2:31 am 02:31 Cloudy 38 3.3 35 1.7 89 89 W 8 13 30.00 1016 10 16 0.00 0.00
2:45 am 02:45 Cloudy 38 3.3 35 1.7 89 89 W 9 15 30.00 1016 10 16 0.00 0.00
2:53 am 02:53 Cloudy 38 3.3 35 1.7 89 89 WNW 9 15 29.98 1015 10 16 0.00 0.00
3:53 am 03:53 Cloudy 38 3.3 35 1.7 89 89 NW 13 20 29.98 1015 10 16 0.00 0.00
4:45 am 04:45 Cloudy 37 2.8 34 1.1 89 89 WNW 9 15 30.00 1016 10 16 0.00 0.00
4:53 am 04:53 Cloudy 37 2.8 35 1.7 93 93 WNW 9 15 29.98 1015 10 16 0.00 0.00
5:43 am 05:43 Cloudy 35 1.7 34 1.1 96 96 NW 13 20 30.02 1016 7 11 0.00 0.00
5:53 am 05:53 Cloudy 35 1.7 33 0.6 93 93 NW 12 19 29.99 1016 8 13 0.00 0.00
6:12 am 06:12 Cloudy 35 1.7 33 0.6 93 93 NW 10 17 30.02 1016 10 16 0.00 0.00
6:53 am 06:53 Cloudy 35 1.7 32 0 89 89 NW 13 20 29.99 1016 10 16 0.00 0.00
7:37 am 07:37 Cloudy 34 1.1 31 -0.6 89 89 NNW 12 19 30.03 1017 10 16 0.00 0.00
7:53 am 07:53 Cloudy 34 1.1 31 -0.6 89 89 NNW 14 22 30.01 1016 10 16 0.00 0.00
8:44 am 08:44 Cloudy 33 0.6 30 -1.1 89 89 NNW 13 20 30.04 1017 10 16 0.00 0.00
8:53 am 08:53 Cloudy 33 0.6 30 -1.1 89 89 NW 15 24 30.01 1016 10 16 0.00 0.00
9:17 am 09:17 Cloudy 33 0.6 30 -1.1 89 89 NNW 13 20 30.04 1017 10 16 0.00 0.00
9:53 am 09:53 Cloudy 32 0 30 -1.1 92 92 NNW 13 20 30.01 1016 10 16 0.00 0.00
10:53 am 10:53 Cloudy 33 0.6 30 -1.1 89 89 NW 15 24 30.01 1016 10 16 0.00 0.00
11:14 am 11:14 Cloudy 34 1.1 30 -1.1 85 85 NW 13 20 30.03 1017 10 16 0.00 0.00
11:26 am 11:26 Cloudy 34 1.1 31 -0.6 89 89 NW 15 24 30.03 1017 10 16 0.00 0.00
11:53 am 11:53 Cloudy 33 0.6 31 -0.6 92 92 NW 12 19 30.00 1016 10 16 0.00 0.00
12:53 pm 12:53 Cloudy 34 1.1 31 -0.6 89 89 NW 10 17 29.97 1015 10 16 0.00 0.00
1:53 pm 13:53 Cloudy 34 1.1 32 0 92 92 WNW 10 17 29.96 1015 10 16 0.00 0.00
2:53 pm 14:53 Cloudy 34 1.1 32 0 92 92 WNW 7 11 29.95 1014 10 16 0.00 0.00
3:53 pm 15:53 Cloudy 35 1.7 32 0 89 89 W 6 9 29.93 1014 10 16 0.00 0.00
4:53 pm 16:53 Cloudy 35 1.7 31 -0.6 85 85 WSW 5 7 29.92 1013 10 16 0.00 0.00
5:53 pm 17:53 Cloudy 35 1.7 31 -0.6 85 85 SW 3 6 29.91 1013 10 16 0.00 0.00
6:50 pm 18:50 Partly Cloudy 30 -1 28 -2 93 93 SSW 6 9 29.93 1013 10 16 0.00 0.00
6:53 pm 18:53 Partly Cloudy 30 -1.1 28 -2.2 92 92 SSW 6 9 29.89 1012 10 16 0.00 0.00
7:53 pm 19:53 Clear 29 -1.7 28 -2.2 96 96 SSW 5 7 29.88 1012 10 16 0.00 0.00
8:53 pm 20:53 Clear 31 -0.6 30 -1.1 96 96 S 7 11 29.86 1011 8 13 0.00 0.00
9:53 pm 21:53 Clear 32 0 30 -1.1 92 92 SSE 8 13 29.82 1010 9 14 0.00 0.00
10:53 pm 22:53 Clear 32 0 30 -1.1 92 92 SSE 9 15 29.81 1009 10 16 0.00 0.00
11:53 pm 23:53 Cloudy 31 -0.6 30 -1.1 96 96 SSE 10 17 29.78 1009 8 13 0.00 0.00

Powered by AerisWeather